Miscellaneous Local Product
Issued by NWS Hastings, NE

Home | Current Version | Previous Version | Text Only | Print | Product List | Glossary On
Versions: 1 2 3 4 5 6 7 8 9 10 11 12 13 14 15 16 17 18 19 20 21 22 23 24 25 26 27 28 29 30 31 32 33 34 35 36 37 38 39 40 41 42 43 44 45 46 47 48 49 50
431
AXUS43 KGID 310402
MISGRI

GID CWA HOURLY WEATHER ROUNDUP
NATIONAL WEATHER SERVICE HASTINGS NE
1100 PM CDT MON MAY 30 2016

NOTE: "FAIR" INDICATES FEW OR NO CLOUDS BELOW 12,000 FEET WITH NO
SIGNIFICANT WEATHER AND/OR OBSTRUCTIONS TO VISIBILITY.

...SOUTH CENTRAL NEBRASKA...

CITY           SKY/WX    TMP DP  RH WIND       PRES   REMARKS
GRAND ISLAND   CLOUDY    72  60  66 S14       29.88S
HASTINGS       CLOUDY    64  56  75 W32G46    29.93R THUNDER
KEARNEY        CLOUDY    63  55  77 NW22G29   29.95R
ORD            CLOUDY    68  51  54 NW18      29.89R
YORK           CLOUDY    73  61  64 S14       29.90R
AURORA         CLOUDY    73  59  61 S13       29.89R
LEXINGTON      LGT RAIN  60  55  81 SE7       29.97F
HOLDREGE       LGT RAIN  62  52  70 NW24G35   29.93S
HEBRON         CLOUDY    72  60  67 S12       29.91R

...NEBRASKA PANHANDLE...

CITY           SKY/WX    TMP DP  RH WIND       PRES   REMARKS
CHADRON        CLOUDY    55  49  80 N3        30.05R
ALLIANCE       MOCLDY    57  46  66 NE16      30.02R
SCOTTSBLUFF    TSTM      56  48  74 N14G23    30.05R
SIDNEY         MOCLDY    53  49  86 NW13      30.02R

...WESTERN AND NORTH CENTRAL NEBRASKA...

CITY           SKY/WX    TMP DP  RH WIND       PRES   REMARKS
VALENTINE      CLOUDY    60  52  74 N10       29.96R
AINSWORTH      LGT RAIN  59  55  85 NE5       29.96R
ONEILL         TSTM      62  56  81 W7        29.89R
BROKEN BOW     HVY RAIN  61  55  81 W3        29.96R
IMPERIAL       CLOUDY    59  53  80 S6        29.95R
NORTH PLATTE   CLOUDY    60  53  77 SE6       29.92R
MCCOOK         CLOUDY    59  55  87 E7        29.92R

...EASTERN NEBRASKA...

CITY           SKY/WX    TMP DP  RH WIND       PRES   REMARKS
NORFOLK        CLOUDY    74  57  55 S12       29.84F
SO SIOUX CITY  MOCLDY    71  60  68 SE12      29.86S
TEKAMAH        CLEAR     66  59  78 S13       29.89R
COLUMBUS       CLOUDY    73  55  53 S9        29.88F
ALBION         CLOUDY    72  59  63 S10       29.86S
OMAHA EPPLEY   CLOUDY    69  61  75 S15G21    29.91R
MILLARD        MOCLDY    69  62  78 SE13      29.91R
LINCOLN        CLOUDY    72  63  73 SE12      29.90R
NEBRASKA CITY  PTCLDY    66  64  94 SE9       29.94R
BEATRICE       CLOUDY    72  61  67 S9        29.93R
FALLS CITY     CLEAR     69  63  81 SE7       29.94R

...NORTHERN KANSAS...

CITY           SKY/WX    TMP DP  RH WIND       PRES   REMARKS
GOODLAND       CLOUDY    57  53  86 CALM      29.99R
HILL CITY      LGT RAIN  60  57  89 N7        29.99R
NORTON         LGT RAIN  59  54  82 N13       29.98F
PHILLIPSBURG   TSTM      61  61 100 NW5       30.00R
SMITH CENTER   CLOUDY    64  54  68 NW20G28   29.94R
BELOIT         CLEAR     66  59  77 SE9       29.89S
HAYS           CLOUDY    66  55  68 SE8       29.91S
RUSSELL        CLOUDY    68  61  78 S14       29.90R
CONCORDIA      CLOUDY    70  61  73 S15G23    29.91R
SALINA         CLOUDY    70  62  76 SE12      29.93R
TOPEKA         CLEAR     69  59  70 S6        29.96R



USA.gov is the U.S. government's official web portal to all federal, state and local government web resources and services.